Precipitable_Water
0.26 0.24 0.22 0.18 0.19 0.19 0.15 0.15 0.12 0.12 0.14 0.17 0.23 0.27 0.33 0.40 0.44 0.45 0.47 0.51 0.54 0.56 0.55 0.51 0.57 0.55 0.43 0.43 0.40 0.38 0.36 0.36 0.34 0.35 0.34 0.31 0.28 0.28 0.29 0.31 0.34 0.34 0.34 0.26
0.23 0.25 0.22 0.16 0.17 0.18 0.18 0.18 0.17 0.17 0.15 0.24 0.29 0.32 0.33 0.37 0.40 0.42 0.46 0.50 0.54 0.55 0.51 0.53 0.45 0.44 0.43 0.41 0.38 0.36 0.36 0.35 0.34 0.34 0.32 0.28 0.28 0.27 0.29 0.32 0.35 0.33 0.32 0.30
0.14 0.21 0.19 0.14 0.14 0.15 0.16 0.19 0.19 0.14 0.16 0.25 0.25 0.29 0.32 0.36 0.40 0.43 0.47 0.51 0.52 0.52 0.50 0.44 0.44 0.45 0.42 0.39 0.36 0.36 0.36 0.33 0.31 0.32 0.29 0.28 0.27 0.26 0.28 0.30 0.34 0.33 0.31 0.31
0.14 0.16 0.09 0.13 0.21 0.21 0.18 0.19 0.22 0.21 0.22 0.26 0.30 0.35 0.37 0.41 0.42 0.42 0.46 0.50 0.52 0.53 0.49 0.46 0.46 0.44 0.41 0.36 0.36 0.36 0.33 0.30 0.30 0.29 0.27 0.27 0.27 0.26 0.28 0.30 0.29 0.31 0.31 0.31
0.11 0.12 0.14 0.15 0.17 0.19 0.18 0.17 0.23 0.22 0.26 0.31 0.37 0.39 0.36 0.41 0.44 0.46 0.52 0.55 0.56 0.53 0.49 0.47 0.46 0.41 0.36 0.35 0.37 0.36 0.30 0.28 0.27 0.27 0.25 0.26 0.26 0.26 0.27 0.26 0.27 0.28 0.28 0.26
0.17 0.12 0.09 0.14 0.21 0.31 0.28 0.15 0.24 0.27 0.29 0.33 0.38 0.26 0.29 0.42 0.48 0.51 0.57 0.59 0.56 0.52 0.49 0.47 0.42 0.38 0.37 0.38 0.38 0.30 0.27 0.26 0.26 0.25 0.25 0.26 0.27 0.28 0.27 0.27 0.25 0.25 0.25 0.24
0.17 0.15 0.16 0.21 0.28 0.32 0.15 0.16 0.29 0.31 0.33 0.35 0.32 0.36 0.42 0.48 0.50 0.57 0.60 0.56 0.53 0.53 0.50 0.46 0.43 0.42 0.40 0.38 0.31 0.28 0.28 0.26 0.24 0.24 0.25 0.27 0.28 0.29 0.27 0.25 0.24 0.24 0.24 0.23
0.19 0.16 0.14 0.28 0.31 0.23 0.29 0.36 0.36 0.38 0.39 0.39 0.42 0.46 0.50 0.53 0.54 0.56 0.54 0.53 0.58 0.51 0.45 0.48 0.46 0.43 0.37 0.32 0.29 0.29 0.26 0.23 0.22 0.24 0.25 0.26 0.27 0.28 0.27 0.25 0.24 0.25 0.24 0.24
0.23 0.20 0.29 0.34 0.34 0.38 0.40 0.38 0.40 0.42 0.46 0.47 0.49 0.52 0.56 0.54 0.53 0.54 0.54 0.56 0.53 0.46 0.52 0.46 0.43 0.39 0.32 0.29 0.30 0.26 0.23 0.22 0.23 0.25 0.25 0.26 0.27 0.28 0.27 0.26 0.26 0.25 0.25 0.23
0.26 0.29 0.32 0.35 0.39 0.41 0.43 0.43 0.47 0.49 0.50 0.53 0.52 0.56 0.56 0.55 0.54 0.54 0.54 0.52 0.54 0.56 0.44 0.41 0.38 0.35 0.30 0.29 0.26 0.24 0.23 0.24 0.25 0.24 0.25 0.27 0.29 0.29 0.27 0.27 0.26 0.27 0.23 0.20
0.29 0.32 0.35 0.37 0.41 0.44 0.47 0.49 0.51 0.55 0.56 0.55 0.57 0.56 0.56 0.54 0.52 0.53 0.56 0.64 0.56 0.46 0.43 0.37 0.35 0.30 0.29 0.26 0.25 0.24 0.24 0.24 0.23 0.25 0.27 0.28 0.29 0.30 0.29 0.29 0.30 0.24 0.21 0.21
0.26 0.36 0.39 0.41 0.49 0.55 0.56 0.56 0.57 0.57 0.56 0.58 0.58 0.56 0.56 0.56 0.57 0.61 0.64 0.53 0.47 0.43 0.37 0.33 0.30 0.27 0.26 0.25 0.26 0.25 0.24 0.23 0.24 0.25 0.27 0.29 0.31 0.31 0.32 0.31 0.29 0.25 0.25 0.23
0.42 0.52 0.53 0.57 0.61 0.64 0.60 0.61 0.62 0.61 0.59 0.57 0.58 0.59 0.58 0.60 0.64 0.64 0.54 0.46 0.42 0.36 0.34 0.30 0.28 0.27 0.26 0.26 0.27 0.26 0.24 0.25 0.26 0.27 0.28 0.29 0.31 0.31 0.28 0.29 0.29 0.28 0.27 0.24
0.59 0.59 0.54 0.60 0.58 0.66 0.65 0.63 0.62 0.60 0.60 0.61 0.61 0.61 0.63 0.63 0.60 0.53 0.46 0.41 0.37 0.34 0.30 0.28 0.28 0.25 0.25 0.28 0.27 0.27 0.26 0.27 0.27 0.28 0.29 0.31 0.32 0.32 0.32 0.27 0.26 0.26 0.27 0.25
0.58 0.62 0.61 0.64 0.64 0.64 0.63 0.62 0.61 0.60 0.61 0.61 0.64 0.61 0.60 0.56 0.51 0.44 0.40 0.37 0.34 0.31 0.28 0.28 0.25 0.23 0.28 0.28 0.27 0.27 0.27 0.27 0.29 0.30 0.30 0.30 0.29 0.30 0.31 0.28 0.27 0.26 0.25 0.25
0.59 0.61 0.62 0.61 0.60 0.60 0.61 0.60 0.59 0.58 0.59 0.60 0.59 0.57 0.55 0.50 0.42 0.38 0.36 0.35 0.29 0.25 0.27 0.25 0.23 0.27 0.29 0.29 0.29 0.29 0.29 0.29 0.30 0.30 0.30 0.29 0.29 0.30 0.28 0.26 0.26 0.25 0.22 0.23
0.57 0.56 0.58 0.57 0.57 0.57 0.57 0.59 0.59 0.58 0.58 0.57 0.55 0.53 0.46 0.39 0.36 0.34 0.33 0.31 0.29 0.27 0.27 0.26 0.27 0.30 0.30 0.30 0.30 0.30 0.29 0.29 0.30 0.31 0.30 0.31 0.31 0.30 0.30 0.26 0.25 0.27 0.25 0.24
0.63 0.62 0.62 0.61 0.58 0.57 0.56 0.57 0.57 0.55 0.52 0.51 0.46 0.41 0.37 0.34 0.31 0.29 0.29 0.29 0.27 0.25 0.26 0.29 0.31 0.31 0.31 0.32 0.31 0.29 0.28 0.29 0.29 0.29 0.30 0.30 0.30 0.32 0.32 0.30 0.26 0.28 0.30 0.27
0.63 0.60 0.59 0.57 0.56 0.53 0.52 0.51 0.50 0.48 0.45 0.41 0.37 0.33 0.32 0.30 0.28 0.27 0.27 0.24 0.22 0.22 0.24 0.31 0.32 0.32 0.32 0.33 0.33 0.32 0.31 0.30 0.30 0.30 0.30 0.30 0.30 0.31 0.32 0.32 0.30 0.28 0.30 0.30
0.51 0.50 0.48 0.46 0.45 0.44 0.41 0.41 0.39 0.35 0.35 0.32 0.29 0.26 0.24 0.25 0.26 0.26 0.27 0.24 0.25 0.27 0.31 0.32 0.33 0.32 0.34 0.35 0.35 0.34 0.32 0.31 0.30 0.30 0.30 0.30 0.30 0.30 0.31 0.32 0.31 0.31 0.30 0.30
0.41 0.41 0.39 0.38 0.36 0.36 0.36 0.35 0.32 0.29 0.28 0.28 0.26 0.25 0.25 0.26 0.27 0.27 0.25 0.23 0.26 0.30 0.31 0.32 0.32 0.32 0.34 0.34 0.34 0.33 0.31 0.31 0.31 0.31 0.30 0.30 0.30 0.31 0.32 0.32 0.32 0.32 0.31 0.32
0.40 0.39 0.37 0.35 0.34 0.32 0.32 0.31 0.30 0.29 0.29 0.29 0.29 0.28 0.26 0.26 0.27 0.27 0.28 0.27 0.28 0.31 0.31 0.32 0.33 0.33 0.32 0.31 0.31 0.30 0.30 0.31 0.32 0.32 0.31 0.32 0.31 0.31 0.30 0.30 0.30 0.30 0.30 0.30
0.36 0.35 0.35 0.34 0.31 0.30 0.30 0.29 0.29 0.29 0.28 0.29 0.28 0.28 0.28 0.28 0.29 0.26 0.22 0.29 0.31 0.31 0.32 0.32 0.34 0.32 0.33 0.35 0.32 0.31 0.29 0.31 0.32 0.32 0.33 0.31 0.31 0.30 0.29 0.28 0.27 0.26 0.25 0.24
0.35 0.35 0.33 0.33 0.31 0.27 0.24 0.27 0.28 0.29 0.29 0.28 0.26 0.25 0.23 0.21 0.20 0.25 0.26 0.26 0.26 0.27 0.28 0.29 0.30 0.32 0.34 0.33 0.32 0.31 0.31 0.30 0.30 0.31 0.31 0.31 0.30 0.29 0.27 0.24 0.22 0.21 0.20 0.19
0.35 0.33 0.31 0.28 0.26 0.26 0.27 0.26 0.24 0.22 0.20 0.18 0.19 0.21 0.22 0.24 0.22 0.21 0.23 0.23 0.24 0.26 0.27 0.30 0.31 0.31 0.33 0.32 0.31 0.29 0.28 0.28 0.28 0.28 0.27 0.26 0.25 0.23 0.21 0.19 0.18 0.17 0.16 0.17
0.32 0.29 0.28 0.29 0.27 0.26 0.23 0.22 0.19 0.18 0.18 0.17 0.18 0.20 0.20 0.20 0.21 0.21 0.22 0.22 0.24 0.26 0.30 0.30 0.29 0.28 0.32 0.30 0.28 0.26 0.26 0.25 0.25 0.25 0.25 0.24 0.23 0.22 0.20 0.19 0.18 0.17 0.17 0.17
0.29 0.27 0.26 0.26 0.24 0.23 0.22 0.20 0.18 0.17 0.17 0.16 0.15 0.16 0.16 0.17 0.17 0.17 0.18 0.20 0.23 0.26 0.25 0.26 0.25 0.26 0.27 0.27 0.25 0.24 0.24 0.23 0.23 0.23 0.23 0.22 0.22 0.20 0.19 0.18 0.17 0.17 0.17 0.17
Wind_Speed
9 9 9 9 10 11 11 10 11 12 14 16 17 17 17 17 17 19 20 21 22 23 24 25 28 31 31 32 33 34 36 37 39 41 43 46 47 49 48 48 47 47 45 41
12 10 10 12 13 13 14 14 18 17 20 19 19 17 18 19 20 21 22 23 24 25 26 28 29 30 31 33 34 35 37 38 40 42 45 47 48 49 48 48 47 46 43 37
12 11 12 14 16 16 16 16 17 18 20 19 20 21 21 21 22 23 24 25 26 27 28 29 30 31 32 33 34 36 38 40 41 44 46 47 49 49 48 48 46 44 38 32
12 12 14 16 15 16 19 20 22 22 21 21 22 22 22 23 24 25 26 26 27 28 28 30 30 31 32 33 35 37 40 41 43 46 46 47 49 49 48 47 44 39 33 29
12 14 18 18 17 18 19 22 22 25 24 23 22 23 24 25 26 27 27 27 28 28 28 29 30 31 32 34 36 38 41 43 45 46 47 47 49 48 47 44 39 34 29 25
12 13 15 16 16 17 19 23 22 22 21 22 21 22 26 26 27 27 27 27 27 27 28 29 30 31 32 34 37 40 43 44 46 46 47 47 48 47 44 40 36 31 27 24
12 15 19 19 18 18 17 21 21 21 21 22 25 27 27 26 26 26 25 25 25 27 28 29 29 30 32 36 40 42 43 45 46 47 47 48 47 44 41 37 32 28 25 23
12 15 19 16 16 17 20 23 25 25 26 26 28 27 27 25 24 23 23 24 26 27 27 28 28 31 35 38 40 42 44 46 47 47 47 47 44 40 36 33 29 26 23 22
16 17 19 21 23 24 25 26 26 27 28 29 28 27 26 26 25 24 24 26 25 26 26 27 30 33 37 40 41 43 45 47 47 47 47 44 40 36 33 30 26 24 23 23
19 20 23 26 27 28 28 29 29 29 29 28 29 27 27 26 26 25 25 25 26 26 26 28 31 35 38 40 42 44 45 46 46 46 44 40 36 33 30 26 23 23 23 22
23 25 26 25 25 26 27 27 27 27 28 29 28 28 28 26 25 25 25 26 24 25 28 30 33 36 39 40 42 43 43 44 45 43 41 37 33 31 27 23 22 22 22 21
23 24 23 25 25 25 26 26 28 28 28 28 28 26 25 24 24 25 25 24 25 27 29 32 34 36 39 40 41 41 43 43 42 41 38 34 31 27 23 22 21 21 21 20
25 24 25 26 27 27 28 29 29 29 28 26 25 23 22 23 24 24 25 25 27 29 31 33 34 36 39 40 40 41 42 42 40 38 35 32 27 23 22 20 21 21 20 19
25 26 27 26 27 28 28 28 26 24 23 22 21 21 22 23 22 24 24 25 29 31 32 33 35 36 38 39 40 41 40 39 38 35 32 29 25 23 21 20 20 20 20 19
24 26 26 26 27 27 26 24 22 22 22 21 22 22 22 23 26 26 28 30 32 32 32 33 35 37 38 39 40 40 38 37 36 33 31 27 25 23 21 20 20 20 20 19
25 24 24 24 24 24 23 23 22 22 22 22 23 24 26 28 28 29 30 32 31 32 33 34 36 38 39 40 40 39 37 37 35 32 29 26 24 22 20 20 20 20 20 19
23 23 22 22 23 23 22 22 23 23 24 25 26 27 28 29 30 30 31 32 33 34 35 36 38 39 40 39 39 38 37 36 34 30 28 26 25 23 21 20 21 21 20 20
19 20 21 21 21 21 22 22 23 24 26 27 28 29 29 30 31 31 32 33 35 36 37 38 39 40 40 39 38 37 36 34 32 30 29 28 26 24 23 22 21 21 21 21
18 18 19 19 20 21 23 24 26 26 28 29 30 30 30 30 31 32 33 34 35 37 38 39 39 40 40 39 38 37 36 34 32 30 29 28 26 25 24 24 23 23 23 23
19 20 21 22 24 25 26 27 28 29 29 29 29 29 29 30 32 33 35 36 37 39 40 41 41 40 40 39 38 37 36 34 32 30 29 28 27 26 25 25 26 26 26 26
22 23 24 25 26 26 27 28 28 28 28 28 29 30 32 33 34 35 37 38 39 40 41 41 40 40 39 38 37 36 35 34 32 31 29 28 27 26 26 25 26 27 28 28
25 26 26 27 27 27 28 28 28 28 28 29 31 32 33 35 37 38 39 41 42 42 42 42 41 40 40 39 38 37 36 34 32 30 29 27 26 25 25 25 25 26 27 28
26 26 27 27 27 27 27 28 28 29 30 32 33 35 37 39 40 42 43 43 45 45 45 44 43 42 40 37 36 34 33 32 29 28 26 25 25 25 25 26 26 27 27 28
26 26 27 27 26 27 27 29 30 32 34 35 37 38 40 42 44 44 46 48 47 46 45 44 42 39 36 35 33 32 30 29 27 25 25 26 26 26 26 26 27 27 28 28
24 25 26 27 27 28 30 32 34 35 37 38 39 40 42 44 46 48 48 48 48 46 44 42 40 38 32 29 29 30 30 29 28 27 27 27 26 26 26 27 27 29 30 31
26 26 27 27 28 30 33 35 36 38 39 40 42 44 47 49 49 49 48 48 46 44 41 38 35 31 26 28 29 29 29 28 27 26 26 26 27 27 27 28 29 31 32 33
25 27 27 28 30 32 35 37 38 39 42 45 48 50 51 51 50 50 48 46 44 40 36 33 30 28 28 28 28 28 28 27 27 26 26 27 27 28 28 30 30 31 32 32
Wind_Direction
226 232 235 238 235 237 250 261 262 276 271 281 281 274 271 270 266 265 268 271 275 279 283 289 296 302 305 308 310 312 314 315 316 318 320 321 322 322 321 321 321 320 319 317
227 241 248 251 252 253 263 271 273 279 281 279 288 281 274 271 268 269 271 274 277 280 284 290 297 301 304 307 309 312 313 314 316 318 320 321 322 322 322 322 321 321 319 317
243 252 257 266 253 254 265 271 273 274 282 283 284 278 274 273 271 272 275 276 279 281 285 290 296 299 303 306 309 311 313 314 315 317 319 320 322 323 322 321 321 320 319 317
249 256 261 266 265 270 267 274 271 283 285 283 288 285 282 277 273 276 277 279 281 284 286 291 295 299 302 306 309 311 313 314 315 317 318 320 322 323 322 322 321 319 317 315
255 260 275 274 270 269 272 282 276 277 282 286 287 287 287 279 280 280 279 281 283 285 288 293 295 299 302 306 309 312 314 315 316 317 317 319 321 322 322 322 321 319 316 314
264 269 271 277 279 278 283 286 288 281 284 283 283 286 290 286 283 282 282 283 284 286 290 294 297 300 304 307 310 313 315 316 317 317 317 318 320 321 321 321 319 317 314 312
270 274 283 281 286 285 287 289 293 288 287 282 285 287 293 292 289 283 282 284 285 289 290 295 298 301 305 309 312 314 315 317 317 317 317 318 319 319 319 319 318 315 312 311
279 283 287 284 287 284 289 292 292 290 288 283 287 291 290 291 291 287 284 284 289 291 292 295 298 303 308 311 313 315 316 317 318 318 318 318 317 317 317 316 316 314 311 310
271 281 285 285 288 290 291 291 292 292 291 288 289 288 288 290 291 288 286 290 289 292 295 297 302 306 310 312 314 316 317 318 319 319 319 318 316 315 315 313 313 312 311 310
285 286 284 286 290 290 290 288 291 290 291 288 287 286 287 289 289 289 288 289 290 294 296 300 304 308 311 313 315 317 318 319 320 320 320 318 316 315 313 311 310 311 311 310
285 288 290 290 290 292 293 293 293 293 293 291 288 287 286 285 286 286 289 289 289 294 297 301 306 308 312 314 316 318 319 320 321 320 320 317 315 313 311 308 310 312 313 310
285 288 289 292 294 295 295 295 295 294 295 294 291 288 287 287 286 288 289 287 291 295 299 303 306 308 313 315 317 318 319 321 321 321 320 318 315 311 306 305 309 310 312 311
288 292 290 292 294 296 296 298 298 296 295 295 293 290 288 287 290 287 287 288 294 298 301 305 307 309 314 316 316 318 319 320 322 322 321 319 316 310 308 306 307 309 311 310
288 290 291 293 295 299 299 300 301 301 299 299 297 295 292 292 291 288 286 290 297 299 302 304 307 309 313 315 317 318 318 319 321 321 320 318 315 310 306 304 306 308 310 309
295 292 293 295 299 300 300 300 302 301 299 299 298 296 291 289 289 290 291 294 298 299 301 304 307 311 313 316 317 317 317 317 319 319 318 315 313 310 303 302 303 306 307 306
294 296 297 298 300 302 301 301 301 299 299 297 295 293 294 293 293 293 294 297 297 299 301 304 309 311 314 314 316 316 315 315 315 315 314 313 311 308 303 300 302 305 305 303
290 294 297 299 301 302 302 301 301 298 296 295 295 296 296 296 295 295 297 299 298 298 301 303 307 311 312 313 314 315 315 315 313 310 310 308 306 302 300 297 299 301 304 303
301 300 300 299 300 301 301 300 299 297 298 299 300 299 298 297 297 297 299 300 300 300 299 302 305 309 310 310 312 314 314 313 311 307 305 305 302 298 294 294 295 297 300 302
303 303 303 301 300 300 300 299 299 300 300 300 300 300 300 299 299 300 301 302 302 302 303 304 305 307 307 308 309 310 311 310 309 306 304 302 300 296 290 288 291 293 295 297
303 303 303 302 303 302 302 302 302 302 302 302 302 302 302 302 302 302 303 304 303 303 304 305 305 306 306 307 307 307 307 306 306 304 303 300 299 296 291 287 288 290 291 292
303 304 305 305 305 305 305 305 304 305 305 304 304 304 304 305 306 305 304 304 306 306 305 305 304 304 305 306 306 305 305 303 302 301 300 299 298 296 293 290 290 291 292 292
300 302 303 304 304 305 306 307 307 307 307 306 306 306 306 306 307 306 305 305 307 306 306 305 304 302 303 303 303 303 303 301 298 297 298 297 297 297 295 294 294 295 296 296
299 300 301 303 304 305 306 308 308 307 308 308 308 308 308 308 308 308 307 307 306 306 305 304 302 301 299 299 301 303 303 302 295 295 295 297 296 296 296 296 296 298 298 299
299 301 302 302 303 306 307 308 309 309 309 309 309 309 309 308 308 308 307 307 306 305 304 303 302 300 298 297 297 301 301 303 299 296 295 297 297 297 296 297 297 298 299 299
301 302 304 304 305 305 306 308 308 309 309 309 309 310 310 310 309 309 309 308 307 306 304 302 300 297 294 295 298 301 301 300 297 294 293 294 295 296 297 298 298 299 299 299
302 302 303 304 305 306 307 308 308 309 310 309 310 310 310 310 310 309 308 307 306 304 303 303 302 298 290 295 299 301 302 300 297 295 293 292 293 295 296 298 299 300 301 301
302 304 304 304 306 308 309 310 310 310 311 310 310 311 311 311 310 309 308 307 306 304 301 300 299 294 292 295 298 300 301 300 299 296 294 293 294 295 297 299 301 302 303 304